User: anonymous   Login
Location: Unspecified
(0.0000°N, 0.0000°E)
Time: 04:45:26
(UTC+00:00)
Language:

ESSA 4 - Orbit

View from above orbital plane
View from above orbital plane
View from above satellite
View from above satellite

Ground track
Ground track

The orbit data is extracted from the following two-line orbital elements,

1  2657U 67006A   18020.51958701 -.00000055 +00000-0 -30040-4 0  9999
2  2657 102.0754 047.5488 0073368 192.8517 336.3116 12.69838409362900
Epoch (UTC): 20 January 2018 12:28:12
Eccentricity: 0.0073368
inclination: 102.0754°
perigee height: 1325 km
apogee height: 1439 km
right ascension of ascending node: 47.5488°
argument of perigee: 192.8517°
revolutions per day: 12.69838409
mean anomaly at epoch: 336.3116°
orbit number at epoch: 36290

The dashed part of the orbit path shows where the satellite is in the earth's shadow,  

DLR